Weather History for North Island, CA

Change the Weather History Date:

Wednesday, January 2, 2013

  Actual Average Record
Temperature  
Mean Temperature 54 °F -  
Max Temperature 63 °F 62 °F 75 °F (2001)
Min Temperature 44 °F 46 °F 44 °F (2001)
Degree Days  
Heating Degree Days 12    
Growing Degree Days 4 (Base 50)    
Moisture  
Dew Point 35 °F    
Average Humidity 52    
Maximum Humidity 68    
Minimum Humidity 23    
Precipitation  
Precipitation 0.00 in - - ()
Sea Level Pressure  
Sea Level Pressure 30.06 in    
Wind  
Wind Speed 3 mph (NNW)    
Max Wind Speed 14 mph    
Max Gust Speed -    
Visibility 10 miles    
Events      
Averages and records for this station are not official NWS values.
T = Trace of Precipitation, MM = Missing Value Source: NWS Daily Summary

Daily Weather History Graph

Daily Weather History Graph

Search for Another Location

Airport:

Trip Planner

Search our weather history database for the weather conditions in past years. The results will help you decide how hot, cold, wet, or windy it might be!

Date:

Astronomy

Jan. 02, 2013 Rise Set
Actual Time 6:51 AM PST 4:55 PM PST
Civil Twilight 6:24 AM PST 5:22 PM PST
Nautical Twilight 5:53 AM PST 5:52 PM PST
Astronomical Twilight 5:23 AM PST 6:22 PM PST
Moon 10:12 PM PST (1/2) 9:53 AM PST (1/2)
Length of Visible Light 10h 57m
Length of Day
10h 03m
Waning Gibbous, 74% of the Moon is Illuminated
Jan 2
Waning Gibbous
Jan 4
Last Quarter
Jan 11
New
Jan 18
First Quarter
Jan 26
Full

Hourly Weather History & Observations

Time (PST) Temp. Windchill Dew Point Humidity Pressure Visibility Wind Dir Wind Speed Gust Speed Precip Events Conditions
12:52 AM 50.0 °F - 32.0 °F 50% 30.10 in 10.0 mi Calm Calm - N/A   Scattered Clouds
1:52 AM 46.0 °F - 33.1 °F 61% 30.09 in 9.0 mi Calm Calm - N/A   Partly Cloudy
2:52 AM 45.0 °F - 33.1 °F 63% 30.08 in 9.0 mi Calm Calm - N/A   Partly Cloudy
3:52 AM 45.0 °F - 32.0 °F 60% 30.06 in 10.0 mi Calm Calm - N/A   Scattered Clouds
4:52 AM 45.0 °F - 30.9 °F 58% 30.06 in 10.0 mi Calm Calm - N/A   Scattered Clouds
5:52 AM 45.0 °F 43.5 °F 33.1 °F 63% 30.05 in 10.0 mi NNW 3.5 mph - N/A   Scattered Clouds
6:52 AM 44.1 °F 42.5 °F 32.0 °F 63% 30.06 in 10.0 mi NE 3.5 mph - N/A   Partly Cloudy
7:52 AM 48.0 °F - 35.1 °F 61% 30.07 in 10.0 mi Calm Calm - N/A   Partly Cloudy
8:52 AM 55.0 °F - 36.0 °F 49% 30.08 in 10.0 mi SE 3.5 mph - N/A   Clear
9:52 AM 61.0 °F - 32.0 °F 34% 30.09 in 10.0 mi North 4.6 mph - N/A   Clear
10:52 AM 63.0 °F - 30.9 °F 30% 30.08 in 10.0 mi NNW 5.8 mph - N/A   Clear
11:52 AM 63.0 °F - 28.9 °F 28% 30.06 in 10.0 mi WNW 10.4 mph - N/A   Clear
12:52 PM 63.0 °F - 24.1 °F 23% 30.05 in 10.0 mi WNW 9.2 mph - N/A   Clear
1:52 PM 63.0 °F - 34.0 °F 34% 30.03 in 10.0 mi NW 10.4 mph - N/A   Clear
2:52 PM 63.0 °F - 30.9 °F 30% 30.03 in 10.0 mi NW 12.7 mph - N/A   Clear
3:52 PM 62.1 °F - 39.9 °F 44% 30.03 in 10.0 mi NNW 13.8 mph - N/A   Clear
4:52 PM 60.1 °F - 39.9 °F 47% 30.03 in 10.0 mi NNW 9.2 mph - N/A   Clear
5:52 PM 57.9 °F - 43.0 °F 58% 30.05 in 10.0 mi NNW 8.1 mph - N/A   Partly Cloudy
6:52 PM 55.0 °F - 42.1 °F 62% 30.06 in 10.0 mi Calm Calm - N/A   Clear
7:52 PM 52.0 °F - 41.0 °F 66% 30.06 in 10.0 mi Calm Calm - N/A   Clear
8:52 PM 51.1 °F - 41.0 °F 68% 30.06 in 10.0 mi ESE 3.5 mph - N/A   Clear
9:52 PM 50.0 °F - 39.9 °F 68% 30.07 in 10.0 mi Calm Calm - N/A   Partly Cloudy
10:52 PM 48.0 °F - 37.9 °F 68% 30.07 in 10.0 mi Calm Calm - N/A   Clear
11:52 PM 48.0 °F - 37.0 °F 66% 30.06 in 9.0 mi Calm Calm - N/A   Clear